Regional Weather Roundup
Issued by NWS

Home | Current Version | Previous Version | Graphics & Text | Print | Product List | Glossary Off
Versions: 1 2 3 4 5 6 7 8 9 10 11 12 13 14 15 16 17 18 19 20 21 22 23 24 25 26 27 28 29 30 31 32 33 34 35 36 37 38 39 40 41 42 43 44 45 46 47 48 49 50

000
ASUS43 KDTX 240810
RWRMI
MICHIGAN HOURLY REGIONAL WEATHER ROUNDUP
NATIONAL WEATHER SERVICE DETROIT/PONTIAC MI
400 AM EDT THU APR 24 2014

NOTE: "FAIR" INDICATES FEW OR NO CLOUDS BELOW 12,000 FEET WITH NO
SIGNIFICANT WEATHER AND/OR OBSTRUCTION TO VISIBILITY.

MIZ047>049-052>055-059>063-066>070-074>076-081>083-240900-
SOUTHEAST LOWER MICHIGAN

CITY           SKY/WX    TMP DP  RH WIND       PRES   REMARKS
ADRIAN         CLOUDY    45  30  55 SE3       30.12R
ALMA           PTCLDY    36  25  64 NE3       30.14R
ANN ARBOR      MOCLDY    42  23  46 E7        30.12R
BAD AXE        CLEAR     26  23  86 CALM      30.14S
DETROIT CITY   MOCLDY    40  16  37 CALM      30.14R
DETROIT        CLOUDY    41  20  43 E3        30.14R
FLINT          PTCLDY    36  20  52 CALM      30.14R
GROSSE ILE     CLOUDY    41   3  20 E5        30.13R
HILLSDALE      CLOUDY    46  29  52 SE6       30.09R
HOWELL         PTCLDY    38  21  51 CALM      30.12R

CITY           SKY/WX    TMP DP  RH WIND       PRES   REMARKS
JACKSON        CLOUDY    45  29  53 SE6       30.11R
LAMBERTVILLE   CLOUDY    46  30  53 E3        30.13R
LANSING        MOCLDY    42  24  49 SE6       30.12R
LAPEER         NOT AVBL
MASON          CLOUDY    41  27  58 E5        30.11R
MONROE         MOCLDY    45  28  53 E6        30.12R
MT. CLEMENS    MOCLDY    31  20  64 N5        30.13R
PONTIAC        MOCLDY    34  18  52 CALM      30.12R
PORT HOPE        N/A     29  23  78 CALM      30.12S
PORT HURON     PTCLDY    28  27  93 CALM      30.15R
TRI CITIES     PTCLDY    35  26  69 E3        30.15R
YPSILANTI      MOCLDY    43  25  49 E5        30.14R
$$
MIZ043>046-050>051-056>058-064>065-071>073-077>080-240900-
SOUTHWEST LOWER MICHIGAN

CITY           SKY/WX    TMP DP  RH WIND       PRES   REMARKS
BATTLE CREEK   CLOUDY    47  28  47 E5        30.09S
BENTON HARBOR  CLOUDY    44  32  62 E6        30.07S
BIG RAPIDS     CLOUDY    39  22  50 CALM      30.11F
COLDWATER      CLOUDY    46  29  49 SE6       30.09R
HOLLAND        CLOUDY    45  32  60 E6        30.09F
GRAND RAPIDS   CLOUDY    45  30  55 E9        30.10R
KALAMAZOO      CLOUDY    47  30  51 E3        30.09R
MARSHALL       CLOUDY    45  27  50 CALM      30.09R
MUSKEGON       CLOUDY    45  23  42 E6        30.09F
$$
MIZ016>042-240900-
NORTHERN LOWER MICHIGAN

CITY           SKY/WX    TMP DP  RH WIND       PRES   REMARKS
ALPENA         CLEAR     28  24  85 CALM      30.14S
BEAVER ISLAND  MOCLDY    28  24  87 CALM      30.14F
BELLAIRE       MOCLDY    32  26  77 CALM      30.14S
CADILLAC       MOCLDY    33  24  70 E5        30.10S
CHARLEVOIX     MOCLDY    33  23  69 E6        30.17F
FRANKFORT      CLOUDY    40  18  40 E7        30.12R
GAYLORD        PTCLDY    30  22  72 CALM      30.12S
GRAYLING       PTCLDY    28  23  81 N3        30.14R
HARBOR SPRINGS PTCLDY    30  24  78 CALM      30.14S
HOUGHTON LAKE  MOCLDY    30  27  88 CALM      30.13S
MANISTEE       CLOUDY    37  21  52 SE5       30.12R
OSCODA         CLEAR     25  19  77 CALM      30.14R
PELLSTON       PTCLDY    28  23  81 CALM      30.15S
TRAVERSE CITY  CLOUDY    33  28  81 CALM      30.11F
$$
MIZ007>008-015-240900-
EASTERN UPPER MICHIGAN

CITY           SKY/WX    TMP DP  RH WIND       PRES   REMARKS
KINROSS        CLEAR     30  28  93 NW3       30.14S
MACKINAC ISLAN PTCLDY    30  24  77 N7        30.14S
NEWBERRY       PTCLDY    32  25  76 CALM      30.13S
S. S. MARIE    CLEAR     30  24  78 CALM      30.14R
$$
MIZ004>006-011>014-085-240900-
CENTRAL UPPER MICHIGAN

CITY           SKY/WX    TMP DP  RH WIND       PRES   REMARKS
MANISTIQUE     CLOUDY    30  26  88 MISG      30.13S
ESCANABA       CLOUDY    32  25  74 CALM      30.11F
MENOMINEE      CLOUDY    37  18  44 CALM      30.11R
SAWYER-GWINN   CLOUDY    35  21  57 S3        30.10S
$$
MIZ001>003-009>011-084-240900-
WESTERN UPPER MICHIGAN

CITY           SKY/WX    TMP DP  RH WIND       PRES   REMARKS
IRON MOUNTAIN  CLOUDY    37  19  48 CALM      30.08F
HOUGHTON       CLOUDY    35  21  56 E5        30.07S
COPPER HARBOR    N/A     39  21  48 SW6       30.07F
IRONWOOD       CLOUDY    39  30  70 S9        30.03R
$$

ABBREVIATIONS USED IN REMARKS
   TC - TEMPERATURE IN CELSIUS
  WCI - WIND CHILL INDEX
   HX - HEAT INDEX
  VSB - VISIBILITY




USA.gov is the U.S. government's official web portal to all federal, state and local government web resources and services.